Dewpoint
28 28 28 28 28 29 28 28 28 27 26 25 23 23 23 22 21 21 21 21 21 21 21 21 21 21 21 21 21 21 21 21 21 21 20 19 19 18 18 18 18 18 18 17 17 18 18 19 21 23 23 23 22 21 20 20 20 21 21 21 20 20 20 20 19 19 19 19 19
29 29 30 30 30 29 29 28 28 27 26 26 24 23 23 22 21 21 21 21 21 21 21 21 21 21 21 21 21 20 20 20 20 19 19 19 18 18 18 18 18 18 17 16 17 17 18 19 20 22 23 23 22 20 19 19 20 20 20 20 19 19 19 19 19 19 19 19 19
30 30 30 30 30 29 28 28 27 26 25 25 24 23 23 22 22 21 21 21 21 21 21 20 21 21 21 20 20 19 19 18 18 18 18 18 18 18 18 17 18 18 18 17 16 16 17 18 20 22 22 22 20 20 20 20 20 20 19 19 19 19 19 19 19 19 19 19 19
30 30 30 30 29 28 28 27 25 25 24 24 24 23 23 22 22 22 21 21 21 20 20 20 20 21 21 21 21 20 20 19 18 18 18 18 18 18 17 17 17 16 16 16 16 16 16 18 19 21 21 20 19 19 19 20 20 19 19 19 19 19 19 18 18 19 19 19 19
31 31 30 30 29 28 27 26 25 24 24 23 23 23 22 22 22 22 21 21 20 20 20 20 20 21 21 21 21 22 22 21 21 19 18 18 18 18 18 17 17 17 16 16 17 17 17 18 19 20 20 20 20 19 19 19 19 19 18 19 19 19 18 18 18 19 19 19 19
31 31 30 29 28 27 26 25 24 23 23 23 22 21 21 21 21 20 20 20 20 21 21 22 21 20 20 19 19 19 19 19 19 19 17 17 17 18 17 17 16 16 16 16 16 16 16 17 19 20 21 21 20 19 19 19 18 18 18 18 18 18 19 19 19 19 19 19 19
31 30 28 28 27 26 25 24 24 23 23 22 21 20 20 20 20 20 20 21 22 22 22 22 21 19 19 18 18 18 18 18 18 18 17 17 18 17 17 17 16 16 16 16 16 16 16 16 19 20 20 20 20 19 19 18 18 18 17 17 18 19 19 19 19 19 19 19 19
29 28 27 26 25 25 24 24 23 22 22 21 20 20 20 20 21 21 21 21 21 21 21 20 19 18 18 18 17 17 17 17 17 18 18 18 17 17 17 17 17 16 16 16 16 16 16 17 19 19 19 19 19 19 18 17 17 17 17 18 19 19 20 20 20 20 19 19 19
28 27 26 25 25 24 24 23 23 21 20 20 20 20 20 21 21 21 21 21 21 20 19 18 18 18 18 18 17 17 17 17 17 17 18 18 17 17 17 17 17 17 17 17 16 16 17 17 18 18 18 18 18 18 17 17 16 16 17 19 19 20 20 20 20 19 19 20 19
26 25 25 25 24 24 23 23 22 21 20 19 20 20 22 23 22 21 20 20 20 19 18 18 18 17 17 17 17 17 17 17 18 18 18 19 18 17 17 17 17 17 17 17 17 17 17 17 17 17 17 17 17 17 17 16 16 17 17 19 20 20 20 20 20 20 20 20 20
25 24 24 23 23 23 22 21 21 20 20 20 21 22 22 23 21 20 20 20 18 17 17 18 18 17 17 18 18 18 18 17 18 18 18 18 18 17 17 17 17 17 17 17 17 17 17 17 17 17 17 17 17 17 16 16 17 17 18 19 19 19 20 21 21 21 21 21 21
24 24 23 23 23 23 22 21 20 20 21 21 21 21 21 20 20 19 19 18 18 17 18 18 18 18 18 18 18 18 18 17 18 18 17 17 17 17 17 17 17 17 17 17 17 17 17 17 16 16 17 17 17 17 17 17 17 18 19 19 20 20 20 21 21 21 22 22 22
23 23 23 23 23 22 21 20 20 20 20 20 20 19 19 19 19 19 18 18 18 18 18 19 19 18 18 18 18 18 18 18 18 18 18 17 17 17 17 17 17 17 17 17 17 17 17 17 16 16 17 17 17 18 18 18 18 19 19 20 20 21 21 22 22 22 22 23 22
22 22 22 22 22 21 21 20 20 20 19 19 19 19 19 19 19 19 18 18 18 19 19 19 19 19 18 18 18 18 18 18 18 18 18 18 17 17 17 17 17 17 17 17 17 17 17 17 16 16 17 17 18 18 18 18 19 19 20 21 21 21 22 22 22 22 23 23 23
20 21 21 21 21 20 20 20 19 19 19 19 19 18 18 19 19 19 18 18 18 19 19 19 19 19 19 19 18 18 18 18 18 18 18 18 17 17 17 17 18 17 17 17 17 17 17 17 17 17 17 17 18 19 19 19 19 20 21 21 22 22 22 23 23 23 23 23 23
19 20 20 20 20 19 19 19 18 18 18 18 18 18 18 18 18 18 18 17 18 18 18 19 19 19 19 19 19 18 18 18 18 18 18 18 17 17 17 17 18 18 17 17 17 17 17 17 17 17 17 17 18 19 20 20 21 21 22 22 22 23 23 23 23 23 23 23 23
19 19 19 19 19 19 19 18 18 18 18 18 19 18 18 18 18 19 19 18 17 18 18 19 19 19 19 20 19 19 18 18 18 18 18 18 18 17 17 17 18 18 18 17 17 17 17 17 17 17 17 18 19 19 20 21 22 22 23 23 23 23 23 24 24 23 23 23 23
18 18 19 19 18 18 19 19 18 18 19 19 19 19 19 19 18 19 19 19 18 17 18 18 18 19 19 19 19 19 19 18 18 18 18 18 18 18 17 17 18 18 18 17 17 17 17 17 17 18 18 19 19 20 22 22 23 23 23 24 24 24 24 24 23 23 23 23 23
17 17 18 18 18 18 19 19 19 19 19 19 19 19 19 19 18 18 18 18 18 18 17 18 18 18 19 19 20 20 19 18 18 18 18 18 18 18 18 18 18 18 17 17 17 17 17 17 18 19 19 20 21 22 23 23 24 24 24 24 24 24 24 23 23 23 23 23 23
17 17 17 18 18 19 19 19 18 19 19 19 18 18 18 18 18 18 18 18 18 18 18 18 18 18 18 19 19 19 19 19 18 18 18 18 18 18 18 18 18 18 17 17 17 17 17 18 19 20 21 22 23 24 24 25 25 25 25 25 24 24 24 23 23 23 23 22 22
17 17 18 18 19 18 18 18 18 18 18 18 18 18 18 18 18 18 18 18 18 18 18 18 18 18 18 18 19 19 19 19 19 18 18 19 18 18 18 19 18 18 17 17 17 17 18 19 20 21 23 23 24 25 25 26 25 25 25 24 24 24 23 23 23 22 22 22 22
17 18 19 19 19 18 18 18 17 17 17 17 17 18 18 18 18 18 18 19 18 18 18 18 19 18 18 18 19 19 19 19 19 19 18 18 18 18 19 19 18 18 17 17 17 18 19 21 22 23 24 25 26 26 26 26 26 25 25 24 23 23 23 23 22 22 22 22 22
18 18 19 19 19 19 18 18 17 17 17 17 17 17 18 18 18 18 18 19 19 18 18 19 19 19 19 19 19 19 19 18 18 18 18 18 18 18 18 18 18 17 17 16 18 20 22 24 25 26 26 27 26 26 26 26 26 25 24 23 23 23 23 22 22 22 22 22 22
18 18 19 19 18 18 18 17 17 17 17 17 17 17 17 18 18 18 18 19 19 19 19 19 19 19 19 19 19 19 18 18 18 18 18 18 18 18 18 18 18 17 17 18 22 25 27 27 28 28 28 28 27 26 26 25 25 24 24 23 23 22 22 22 22 22 22 22 22
19 18 18 18 17 17 17 17 17 17 17 17 17 17 17 18 18 18 19 19 19 19 19 19 19 19 19 19 19 19 18 18 18 18 17 18 18 18 18 18 18 18 18 21 26 29 30 29 29 28 28 28 27 26 26 26 25 24 24 23 22 22 22 21 21 21 21 21 22
19 18 18 17 17 17 17 17 17 17 17 17 17 17 17 18 18 19 19 19 19 20 21 21 21 20 19 19 19 19 18 18 18 18 18 18 18 18 18 18 18 18 20 24 28 30 30 31 30 30 29 28 27 26 26 26 25 24 23 23 22 22 21 21 21 21 21 21 22
18 18 17 17 17 16 16 17 17 17 17 17 17 17 17 18 18 18 19 19 19 20 21 21 22 21 20 18 18 18 18 18 18 18 18 18 18 18 18 18 18 18 21 26 29 30 31 31 31 31 30 28 28 27 26 25 24 24 23 23 22 22 21 21 21 21 21 21 21
18 18 17 17 16 16 16 16 16 16 16 16 17 17 18 18 18 18 19 19 19 19 19 19 20 19 19 18 18 18 18 18 18 18 18 18 19 19 19 19 18 19 22 28 29 30 31 31 31 31 30 29 29 28 26 25 24 23 23 22 22 22 22 21 21 21 21 21 21
18 17 17 16 16 16 16 16 15 15 16 16 17 17 18 18 18 19 19 19 19 19 19 19 19 18 18 18 18 18 18 18 18 18 18 18 19 19 19 19 18 20 23 29 29 30 30 30 30 30 30 30 28 28 26 25 24 23 23 22 22 22 22 21 21 21 21 20 20
17 17 16 16 15 15 15 15 15 16 16 17 17 17 18 18 18 18 19 19 19 19 19 19 19 18 18 18 18 18 18 18 18 18 19 19 19 19 19 19 18 19 23 29 30 30 30 30 30 30 30 30 29 28 26 24 23 23 23 22 22 22 22 22 21 21 21 20 20
16 16 16 15 15 15 15 15 15 16 16 17 17 17 17 18 18 19 19 19 20 20 20 19 18 18 18 18 18 18 18 18 18 19 19 19 20 19 19 19 18 19 23 29 30 30 29 29 29 29 29 29 28 27 26 25 24 23 23 22 22 22 22 22 22 21 21 21 20
16 16 15 15 15 15 15 15 15 16 16 17 17 17 18 18 19 20 20 20 20 20 19 19 18 18 18 18 18 18 18 19 19 19 20 20 19 18 18 19 18 20 24 29 29 29 29 29 29 29 29 29 28 27 26 25 24 23 23 22 22 22 22 22 22 21 21 21 20
16 15 15 15 14 15 15 15 15 16 16 17 17 17 18 19 20 20 20 20 19 19 18 18 18 17 17 17 17 17 18 19 19 20 20 19 19 19 19 19 17 20 25 29 29 29 28 28 28 28 29 29 28 27 26 24 23 23 23 22 22 23 23 23 22 22 21 20 20
15 15 15 15 14 15 15 15 15 16 16 16 17 17 19 20 20 20 20 21 20 19 19 19 18 18 18 17 17 17 19 20 19 19 18 18 19 19 19 18 16 20 26 28 29 28 28 28 28 28 29 29 28 27 25 24 23 23 22 22 22 23 23 23 22 22 21 20 20
15 14 14 14 14 15 15 15 16 16 16 16 17 18 19 20 20 21 22 23 22 20 19 18 18 18 18 17 17 18 19 19 19 18 18 19 19 19 18 18 17 21 26 28 28 28 28 28 28 28 29 28 27 26 24 23 23 23 22 22 22 22 22 22 22 21 21 20 20
14 14 14 14 14 15 15 16 16 16 16 17 18 19 20 20 20 21 23 23 21 19 18 18 17 17 17 17 17 19 20 19 19 19 19 19 19 18 17 18 18 22 25 28 28 28 28 28 28 28 28 28 26 25 24 23 23 22 22 21 21 22 22 21 21 21 21 22 23
14 14 14 14 14 15 15 16 16 16 17 17 19 19 19 19 19 20 21 22 19 18 18 17 17 17 17 18 18 19 19 19 19 19 19 19 18 17 18 19 19 21 23 27 27 27 27 28 28 28 28 26 25 24 23 23 22 21 21 21 21 21 21 21 21 22 23 25 27
14 14 14 14 15 15 16 16 16 16 17 18 19 19 19 19 19 19 21 22 18 17 17 17 17 17 17 18 19 19 19 19 19 19 19 18 17 18 19 20 19 20 22 25 27 28 28 28 28 28 28 25 24 23 23 23 22 21 20 20 20 20 20 21 23 25 27 28 27
14 14 14 15 15 16 16 16 16 17 18 19 19 18 18 18 19 20 21 21 18 17 17 17 17 17 18 20 20 19 19 18 18 18 18 17 17 19 22 21 19 19 20 24 27 28 28 28 28 28 28 25 24 23 23 22 21 20 20 19 19 19 21 23 26 27 27 25 25
14 15 15 15 16 16 16 16 16 18 19 19 18 18 18 19 20 21 20 19 17 17 17 17 17 17 19 22 20 18 17 16 16 17 17 18 19 21 22 20 19 18 19 23 26 28 28 28 28 28 27 25 23 23 23 22 21 20 19 19 19 21 23 27 27 26 23 22 23
15 15 16 16 16 16 16 16 17 18 19 19 19 19 20 21 20 19 18 16 17 17 17 17 17 18 19 20 18 17 16 16 16 16 17 18 19 19 20 18 17 17 18 21 25 27 28 28 28 28 27 25 23 23 22 22 20 19 19 19 21 24 27 27 25 23 21 20 20